Location: Cardiff
(53.7833°N, 113.6000°W)
Time: 15:40:50
(UTC+00:00)

RS-15 - Pass Details

Date: 11 December 2023
Orbit: 1893 x 2151 km, 64.8° (Epoch: 27 February)

Event Time Altitude Azimuth Distance (km) Brightness Sun altitude
Exits shadow 09:52:43 50° 91° (E) 2,378 8.4 -48.9°
Drops below altitude 10° 10:00:28 10° 115° (ESE) 4,315 10.0 -47.9°
Sets 10:03:44 0° 119° (ESE) 5,292 10.6 -47.5°
